Regional Weather Roundup
Issued by NWS

Home | Current Version | Previous Version | Graphics & Text | Print | Product List | Glossary On
Versions: 1 2 3 4 5 6 7 8 9 10 11 12 13 14 15 16 17 18 19 20 21 22 23 24 25 26 27 28 29 30 31 32 33 34 35 36 37 38 39 40 41 42 43 44 45 46 47 48 49 50
480
ASUS43 KOAX 180310
RWRNE

WEATHER ROUNDUP FOR NEBRASKA
NATIONAL WEATHER SERVICE OMAHA NE
900 PM CST SUN DEC 17 2017

NOTES: SATELLITE DATA IS BEING USED TO AUGMENT CLOUD COVER ABOVE
       12000 FEET.
       "FAIR" INDICATES FEW OR NO CLOUDS BELOW 12,000 FEET WITH NO
       SIGNIFICANT WEATHER AND/OR OBSTRUCTIONS TO VISIBILITY.


NEZ001>004-019>022-054>056-180400-
NEBRASKA PANHANDLE

CITY           SKY/WX    TMP DP  RH WIND       PRES   REMARKS
SCOTTSBLUFF    CLEAR     27  15  61 W6        29.93R WCI  20
ALLIANCE       CLEAR     20  15  81 W10       29.89R WCI   9
CHADRON        CLOUDY    30  18  60 W13       29.90R WCI  20
GORDON         FAIR      32  23  71 W8        29.85S WCI  24
KIMBALL        CLEAR     25  22  87 W9        29.94R WCI  16
SIDNEY         CLEAR     20  18  92 W10       29.94R WCI   9
$$

NEZ057>060-069>072-079>082-180400-
SOUTHWEST NEBRASKA

CITY           SKY/WX    TMP DP  RH WIND       PRES   REMARKS
NORTH PLATTE   CLEAR     30  27  88 S7        29.96R WCI  23
IMPERIAL       CLEAR     25  22  88 SW7       29.98R WCI  17
LEXINGTON      CLOUDY    28  25  89 S6        29.99S WCI  21
MCCOOK         CLOUDY    27  24  89 SW8       30.01R WCI  19
OGALLALA       CLEAR     26  22  86 W7        29.95R WCI  18
$$

NEZ005>010-023>029-035>040-094-180400-
NORTH CENTRAL NEBRASKA

CITY           SKY/WX    TMP DP  RH WIND       PRES   REMARKS
VALENTINE      CLEAR     33  28  81 SW12      29.87S WCI  24
AINSWORTH      CLEAR     29  29  96 S8        29.89F WCI  22
BROKEN BOW     CLEAR     29  26  89 S3        29.95R
O`NEILL        CLEAR     32  28  86 S8        29.93F WCI  25
ORD            CLEAR     28  26  92 SW7       29.96R WCI  21
THEDFORD       CLEAR     30  29  96 S7        29.91F WCI  23
$$

NEZ041-046>049-061>064-073>077-083>087-180400-
SOUTH CENTRAL NEBRASKA

CITY           SKY/WX    TMP DP  RH WIND       PRES   REMARKS
GRAND ISLAND   CLOUDY    27  24  89 SW5       30.00S WCI  22
AURORA         CLEAR     30  27  90 CALM      30.00R
HASTINGS       CLOUDY    29  26  89 SW3       30.01R
HEBRON         CLOUDY    28  26  91 CALM      30.03R
HOLDREGE       CLOUDY    31  29  94 S6        30.00S WCI  25
KEARNEY        CLOUDY    33  29  85 CALM      30.01R
YORK           MOCLDY    28  27  93 W3        30.00S
$$

NEZ011>018-030>034-042>045-180400-
NORTHEAST NEBRASKA

CITY           SKY/WX    TMP DP  RH WIND       PRES   REMARKS
NORFOLK        CLOUDY    21  19  92 SW5       29.97F WCI  15
ALBION         CLOUDY    34  28  80 CALM      29.98S
BLAIR          CLOUDY    30  28  92 CALM      29.99S FOG
COLUMBUS       CLOUDY    24  21  88 CALM      30.00S
FREMONT        CLOUDY    28  26  94 CALM      30.01S FOG
TEKAMAH        CLOUDY    25  21  85 SW5       30.01S WCI  19
WAYNE          CLOUDY    20  19  97 CALM      29.98S
$$

NEZ050>053-065>068-078-088>093-180400-
SOUTHEAST NEBRASKA

CITY           SKY/WX    TMP DP  RH WIND       PRES   REMARKS
LINCOLN        CLOUDY    32  27  81 CALM      30.03R
OMAHA EPPLEY   CLOUDY    28  23  81 SE3       30.02S
BEATRICE       CLEAR     29  29  99 CALM      30.02S FOG
FALLS CITY     CLOUDY    37  35  92 N5        30.02S FOG     WCI  33
NEBRASKA CITY  PTCLDY    30  30 100 SW5       30.01F FOG     WCI  25
PLATTSMOUTH    PTCLDY    29  28  95 SW5       30.01S WCI  24
$$

NEZ044-045-051>053-067-180400-
OMAHA AREA

CITY           SKY/WX    TMP DP  RH WIND       PRES   REMARKS
OMAHA EPPLEY   CLOUDY    28  23  81 SE3       30.02S
BLAIR          CLOUDY    30  28  92 CALM      29.99S FOG
FREMONT        CLOUDY    28  26  94 CALM      30.01S FOG
MILLARD        CLOUDY    31  28  88 CALM      30.01S
OFFUTT AFB     MOCLDY    28  25  88 CALM      30.01S
PLATTSMOUTH    PTCLDY    29  28  95 SW5       30.01S WCI  24
WAHOO          FAIR      29  26  87 CALM      30.01R
$$




USA.gov is the U.S. government's official web portal to all federal, state and local government web resources and services.